This demonstration page uses our WeatherBlox Daily Observations layout. Learn more.

Left ArrowRight Arrow

Hourly Observations for May 12, 2018

Temp ( °F °C ) Dew Point ( °F °C ) Humidity (%) Winds ( mph kmh ) Pressure ( in mb ) Visibility ( mi km ) Precip ( " mm )
12:53 am 00:53 Cloudy 45 7.2 38 3.3 77 77 ESE 5 7 30.22 1023 10 16 N/A
1:53 am 01:53 Cloudy 45 7.2 39 3.9 80 80 E 3 6 30.21 1023 10 16 N/A
2:04 am 02:04 Cloudy 45 7 39 4 81 81 E 3 6 30.21 1023 10 16 N/A
2:44 am 02:44 Cloudy 45 7 39 4 81 81 N N/A 30.21 1023 10 16 N/A
2:53 am 02:53 Cloudy 44 6.7 40 4.4 85 85 N N/A 30.20 1023 10 16 N/A
3:53 am 03:53 Cloudy 45 7.2 38 3.3 77 77 N N/A 30.19 1022 10 16 N/A
4:53 am 04:53 Cloudy 44 6.7 38 3.3 79 79 N N/A 30.18 1022 10 16 N/A
5:53 am 05:53 Cloudy 44 6.7 36 2.2 73 73 N N/A 30.19 1022 10 16 N/A
6:53 am 06:53 Cloudy 45 7.2 36 2.2 71 71 N N/A 30.20 1023 10 16 N/A
7:53 am 07:53 Cloudy 45 7.2 35 1.7 68 68 N N/A 30.20 1023 10 16 N/A
8:53 am 08:53 Cloudy 46 7.8 35 1.7 66 66 N N/A 30.19 1022 10 16 N/A
9:53 am 09:53 Cloudy 46 7.8 35 1.7 66 66 N N/A 30.19 1022 10 16 N/A
10:53 am 10:53 Cloudy 47 8.3 36 2.2 66 66 N N/A 30.18 1022 10 16 N/A
11:53 am 11:53 Cloudy 47 8.3 37 2.8 69 69 WSW 6 9 30.18 1022 10 16 N/A
12:12 pm 12:12 Cloudy 48 9 37 3 66 66 WNW 9 15 30.12 1020 10 16 N/A
12:53 pm 12:53 Cloudy 49 9.4 37 2.8 64 64 undefined N/A 30.16 1021 10 16 N/A
1:53 pm 13:53 Cloudy 49 9.4 38 3.3 66 66 S 3 6 30.14 1021 10 16 N/A
2:41 pm 14:41 Cloudy 51 10.6 39 3.9 64 64 SW 8 13 30.09 1019 10 16 N/A
2:53 pm 14:53 Mostly Cloudy 51 10.6 38 3.3 61 61 VRB 5 7 30.13 1020 10 16 N/A
3:53 pm 15:53 Mostly Cloudy 54 12.2 39 3.9 57 57 SW 8 13 30.10 1019 10 16 N/A
4:53 pm 16:53 Partly Cloudy 55 12.8 39 3.9 55 55 WSW 6 9 30.09 1019 10 16 N/A
5:53 pm 17:53 Sunny 55 12.8 40 4.4 57 57 SSW 5 7 30.06 1018 10 16 N/A
6:53 pm 18:53 Sunny 56 13.3 40 4.4 55 55 VRB 5 7 30.05 1018 10 16 N/A
7:53 pm 19:53 Sunny 55 12.8 41 5 59 59 WSW 5 7 30.04 1017 10 16 N/A
8:53 pm 20:53 Clear 51 10.6 43 6.1 74 74 WSW 3 6 30.05 1018 10 16 N/A
9:53 pm 21:53 Clear 46 7.8 43 6.1 89 89 SSE 5 7 30.06 1018 10 16 N/A
10:53 pm 22:53 Clear 44 6.7 41 5 89 89 S 8 13 30.06 1018 10 16 N/A
11:53 pm 23:53 Clear 43 6.1 41 5 93 93 S 5 7 30.06 1018 10 16 N/A

Powered by AerisWeather